Карточка аэропорта UOOO

Внимание!
Информация на этой странице в стадии наполнения.
Если вы не увидели какой-то информации, или заметили неточность - пожалуйста сообщите нам!
Спасибо!
Команда XR-STAFF
Название аэропортаАлыкель
Название аэропорта (англ.)Alykel
Превышение574 ft. (175 m.)
Координаты69°19.02', 87°19.02'
Высота перехода1200m
Эшелон переходаQFE>744:FL60;744>QFE>717:FL70;717>QFE:FL80
Коды ответчика5401-5427
Зона ОрВДКрасноярск РПИ (UNKL)
Данные METARUOOO 241800Z 22002MPS 9999 FEW007 BKN043 02/02 Q1016 R19/CLRD60 NOSIG RMK QFE745/0994
Проноз погоды (TAF)UOOO 241659Z 2418/2518 01003G08MPS 6000 BKN016 BECMG 2419/2421 0500 FG VV002 BECMG 2500/2502 9999 NSW BKN016 BECMG 2502/2504 01008G13MPS
NOTAMshow/hide NOTAM
AWOS   TABLE

Информация о ВПП

ВПП Длина ВПП (м.) Покрытие Курс ВПП Частота ILS
013430Бетон13109.5
193430Бетон193110.3

Диспетчерские позиции

Позывной Наименование органа УВД Частота
UOOO_TWRНорильск - Старт118.300
UOOO_APPНорильск - Круг120.400
UOOO_GNDНорильск - Руление121.700



Спутниковое изображение